Location: Unspecified
(64.9000°N, 0.0000°E)
Time: 04:41:39
(UTC+00:00)

A-11 Canister half - Pass Details

Date: 24 June 2019
Orbit: 1526 x 1683 km, 47.3° (Epoch: 21 July)

Event Time Altitude Azimuth Distance (km) Brightness Sun altitude
Rises 06:11:09 0° 235° (SW) 4,719 11.0 22.0°
Reaches altitude 10° 06:14:51 10° 224° (SW) 3,719 10.7 22.4°
Maximum altitude 06:22:00 26° 173° (S) 2,672 10.5 23.2°
Drops below altitude 10° 06:29:07 10° 122° (ESE) 3,696 12.0 23.9°
Sets 06:32:47 0° 111° (ESE) 4,684 12.6 24.3°
